COSMOS 2251 DEB, 34813

Orbit data source: Space-Track

COSMOS 2251 DEB, 34813 is space debris in LEO originally from a launch on Wed, 16 Jun 1993 UTC launched from the Plesetsk Missile And Space Complex (PKMTR). The debris from Iridium 33, an American commercial communications satellite, has been tracked extensively since its accidental collision with the defunct Russian satellite Cosmos 2251 in 2009. This event, occurring at high speed in low Earth orbit (LEO), generated thousands of pieces of space debris, significantly increasing the risk of further collisions. The Iridium 33 debris cloud has impacted space traffic management and orbital debris mitigation strategies, making it a subject of ongoing study in space situational awareness.

Loading next visibility...
Identifier
34813, 1993-036ABC
Orbit
LEO
Country
Flag of CISCIS
Related business
Manufacturer
Unknown
Mission
Spacecraft
Bus & Motor
Unknown
Mass
Unknown
Launch date (UTC)
1993-06-16 (33 years ago)
Launch vehicle
Unknown
Launch site
Plesetsk Missile And Space Complex (PKMTR)
Object type
Payload
Rocket body
Debris
Shape & HBR
Unknown shape, 0.1 m
Radar Cross Section
Small (<0.1 m²)

Expand to show TLE details & history
Last TLE update: 4 days ago

TLE from 4 days ago
0 COSMOS 2251 DEB
1 34813U 93036ABC 26068.84045055  .00006198  00000-0  53059-2 0  9991
2 34813  73.9340 353.0437 0436226  10.5078 350.4785 13.50938738828317
Epoch: 2026-03-09T20:10Z
TLE epoch observation values (Epoch: 2026-03-09T20:10:14.927Z)
Latitude
-0.00011°
Longitude
-117.04615°
Altitude
751.296 km
Speed
7.638 km/s
True Right ascension
23h 32m 10s
True Declination
0° 00' 00"
Sunlit
Object was in daylight at epoch
Visualization orbit readout
Latitude
Unknown
Longitude
Unknown
Altitude
Unknown
Speed
Unknown
Apparent Right ascension
Unknown
Apparent Declination
Unknown
Sunlit
N/A
Visualization observer readout
Local Sidereal Time
07:12:08
Azimuth
Unknown
Elevation
Unknown
Doppler factor
Unknown
Orbital elements
Apogee altitude
1,391.283 km
Perigee altitude
741.772 km
Semi-major axis
7,444.665 km
Eccentricity
0.04362
Inclination
73.934°
RAAN
353.0437°
Arg. of periapsis
10.5078°
True anomaly
349.60477°
Mean anomaly
350.4785°
Eccentric anomaly
350.04648°
Mean motion
3.3789 °/min
Orbital period
106.54 mins
BSTAR
0.0053059

Documentation

Showing up to 5 results
|